Dewpoint
67 67 67 68 68 68 68 68 68 69 68 68 68 68 68 68 68 67 67 67 67 67 67 67 68 68 68 69 68 68 68 68 68 68 67 67 67 67 67 67 67 67 66 66 66 67 68 62 56 52 51 52 53 54 55 57 58 59 58 59 60 61 63 67 68 69 68 68 68 68 67 67 67 67 66 66 66 65 65 64 64 64 64 63 63 63 63 63 63 64 64 65 65 65 66 66 66 66 66 67 67 67 66
67 67 67 67 67 68 68 68 68 68 68 68 68 68 68 68 67 67 67 67 67 67 67 67 68 68 69 69 69 69 69 68 68 68 68 67 67 67 67 67 66 66 66 66 67 67 67 61 55 51 51 52 53 54 55 57 58 59 59 60 61 62 63 67 68 68 68 68 67 67 67 67 67 66 66 66 65 65 64 64 63 63 63 63 62 62 62 62 62 63 63 63 63 64 64 65 65 66 66 66 66 66 66
67 67 67 67 67 67 67 67 68 68 68 68 68 68 68 68 67 67 67 67 67 67 67 67 67 68 69 69 69 69 69 68 68 68 68 67 67 67 67 67 66 66 66 66 67 67 67 62 55 51 52 52 53 54 55 57 58 59 59 61 62 64 65 67 67 68 67 67 67 67 67 67 67 66 66 65 65 65 64 63 63 63 62 62 62 61 61 61 61 61 62 62 62 63 63 63 64 65 65 65 65 65 65
67 67 67 67 67 67 67 67 67 67 68 68 68 68 68 68 67 67 67 67 67 67 67 67 67 68 68 69 69 69 69 68 68 68 68 67 67 67 67 67 67 66 66 66 67 66 62 57 54 52 52 52 53 54 55 57 58 58 59 61 63 65 66 67 68 68 67 67 67 67 67 67 66 66 66 65 65 64 64 63 63 62 62 61 61 61 61 61 61 61 61 61 61 61 62 62 63 63 64 64 64 64 65
67 67 67 67 67 67 67 67 67 67 67 67 67 68 68 68 68 67 67 67 67 67 67 66 67 67 67 68 68 69 69 68 68 68 67 67 67 67 67 67 67 66 66 66 66 65 60 55 52 51 51 52 53 53 54 56 58 58 58 60 63 65 67 67 67 67 67 67 67 67 66 66 66 66 65 65 64 64 63 63 62 62 61 61 60 60 61 61 61 60 60 60 60 60 60 61 62 63 63 63 63 64 64
67 67 67 67 67 67 66 67 67 67 67 67 67 67 67 67 67 67 67 67 67 67 66 66 66 66 67 67 68 68 68 68 68 68 67 67 67 67 67 66 66 66 66 65 66 64 60 52 49 49 50 50 52 53 54 56 57 58 58 59 62 65 67 67 67 67 67 67 67 66 66 66 65 65 65 64 64 63 63 62 61 61 61 60 60 60 61 61 61 61 60 60 60 60 60 60 61 62 62 63 63 63 63
68 67 67 67 67 67 67 66 66 66 67 67 67 67 67 67 67 67 67 67 67 67 66 66 65 65 66 66 67 67 67 67 67 67 67 67 67 66 66 66 66 65 65 65 65 64 61 52 49 49 49 49 51 53 54 56 57 58 58 59 63 66 67 67 67 67 67 67 67 66 66 65 65 64 64 63 63 63 62 61 61 60 60 60 60 60 61 61 61 61 61 60 60 60 60 60 60 61 62 62 62 63 63
68 67 67 67 67 67 67 67 66 66 66 66 67 67 67 67 67 67 67 67 67 67 66 66 65 65 65 65 65 66 66 67 67 67 66 66 66 66 65 65 65 64 64 64 64 63 63 54 50 48 48 49 50 52 54 55 56 58 58 60 63 66 67 67 67 67 67 67 66 66 66 65 64 64 63 63 62 62 61 60 60 60 60 60 60 60 60 60 60 60 60 60 60 60 60 60 60 60 61 61 62 62 62
68 67 67 67 67 67 67 66 66 66 66 66 66 66 66 66 67 67 67 67 67 67 66 66 65 65 64 64 64 64 65 65 65 65 65 65 65 65 64 64 64 63 63 63 63 63 63 57 52 49 49 49 50 52 55 55 56 58 59 62 64 66 68 68 67 66 67 67 66 66 65 64 64 63 63 62 61 60 60 59 59 59 60 60 60 60 60 60 60 60 60 60 60 60 60 60 60 60 60 61 61 61 62
68 67 67 67 67 67 66 66 66 65 65 65 65 65 66 66 66 66 67 67 67 67 66 66 65 65 64 63 63 63 63 63 63 63 63 63 64 64 63 63 63 63 62 62 62 61 62 58 52 49 49 49 49 52 56 56 57 59 61 64 67 68 69 68 67 67 67 66 66 65 65 64 63 63 62 61 61 60 59 59 59 59 59 59 60 60 60 60 60 60 60 60 60 60 60 60 60 59 60 60 60 60 61
68 67 67 67 67 67 66 66 65 65 65 65 65 65 65 65 66 66 66 67 67 67 67 66 66 65 64 63 63 62 62 62 61 61 61 62 62 63 63 63 62 62 61 61 61 61 60 56 51 48 49 49 50 53 55 57 58 59 62 65 67 68 69 69 68 67 67 66 65 65 64 63 63 62 62 61 60 59 58 58 58 59 59 59 59 59 59 60 60 60 59 59 59 59 60 60 60 59 59 59 60 60 60
68 68 67 67 67 67 66 66 65 65 64 64 64 64 65 65 65 65 66 66 67 67 67 66 66 65 64 64 63 62 61 60 60 59 59 60 60 61 61 61 61 61 61 61 61 60 59 53 49 48 48 49 50 52 54 57 58 60 63 66 67 68 69 69 68 67 67 66 65 64 64 63 63 62 61 60 60 59 58 58 58 58 59 59 59 59 59 59 59 59 59 59 59 59 59 59 59 59 59 59 59 59 59
68 68 67 67 67 67 66 66 65 65 64 64 64 64 64 64 65 65 65 66 66 66 67 66 66 66 65 64 63 62 61 60 59 58 58 58 58 58 59 59 59 60 60 61 61 59 56 49 46 46 47 49 50 52 54 57 58 61 65 67 67 67 68 68 68 67 66 65 65 64 63 63 62 61 61 60 59 59 58 58 58 58 58 58 58 59 59 59 59 59 59 59 59 59 59 59 59 59 59 59 59 59 59
68 68 67 67 67 67 66 66 66 65 65 64 64 64 64 65 65 65 65 65 66 66 67 67 66 66 65 64 63 63 61 60 59 58 58 57 57 57 56 57 57 58 59 59 57 54 51 47 45 46 47 49 50 52 55 57 59 63 66 67 67 67 67 67 67 67 66 65 64 63 63 62 62 61 61 60 59 58 58 58 58 58 58 58 58 58 58 59 59 59 59 59 59 59 59 59 59 59 59 59 59 59 60
67 67 67 67 67 67 66 66 66 66 65 65 64 64 64 65 65 65 65 65 66 66 67 67 66 66 65 65 64 63 62 60 59 58 58 57 56 55 55 55 56 57 58 56 53 50 47 45 45 46 47 49 50 52 54 57 60 63 66 66 66 66 66 66 66 66 65 64 64 63 63 62 62 61 60 60 59 58 58 58 58 58 58 58 58 58 58 59 59 59 59 59 59 58 58 58 58 58 59 59 59 59 60
65 66 67 67 68 67 67 67 66 66 66 65 65 64 64 64 65 65 66 66 66 67 67 67 67 66 66 65 64 63 62 61 60 58 58 56 55 54 54 54 55 56 55 53 49 45 43 44 45 46 47 48 50 52 54 56 60 63 66 66 66 66 66 66 66 65 64 64 63 63 63 62 61 61 60 59 59 58 58 58 58 57 57 58 58 58 58 58 58 59 58 58 58 58 58 58 58 58 58 58 58 59 60
64 65 67 68 68 68 67 67 67 67 66 66 65 65 64 64 65 65 66 66 67 67 67 67 67 66 66 65 65 64 62 60 59 58 58 57 55 54 54 54 55 54 51 49 46 43 42 43 44 45 46 48 49 52 54 56 59 63 65 65 65 65 66 66 65 65 64 64 63 63 63 62 61 61 60 59 59 58 58 58 58 57 57 58 58 58 58 58 58 58 58 58 58 58 58 58 58 58 58 58 58 58 59
65 66 68 68 68 68 68 67 67 67 67 66 66 66 65 65 64 65 65 66 66 67 67 67 66 66 66 65 65 63 61 59 58 57 57 56 55 55 54 55 54 52 49 46 44 43 42 43 44 45 45 47 49 51 54 56 60 63 64 64 64 64 65 65 65 65 64 64 63 63 63 62 61 61 60 59 59 58 58 58 57 57 57 57 58 58 58 58 58 58 58 58 58 58 58 58 58 58 58 58 58 58 58
65 67 67 68 68 68 68 68 67 67 67 67 67 66 66 65 65 65 65 65 66 66 66 66 66 66 66 65 64 62 59 58 57 56 54 53 54 54 54 51 49 46 45 43 43 43 42 43 44 45 45 46 48 51 55 58 61 63 63 63 63 64 64 65 65 65 64 64 63 63 63 62 61 61 60 59 58 58 58 58 57 57 57 57 57 58 58 58 58 58 58 58 58 58 58 58 58 58 58 58 58 58 58
65 66 67 67 68 68 68 68 68 67 67 67 67 67 66 66 65 65 65 65 65 65 65 65 66 66 65 63 61 59 57 56 55 54 52 50 49 49 49 45 44 43 42 42 42 42 43 43 44 44 45 45 47 50 55 59 62 63 63 63 63 63 63 64 65 65 65 64 63 63 63 62 62 61 60 59 58 58 58 57 57 57 57 56 57 57 58 58 58 58 58 58 58 58 58 58 58 58 58 58 58 58 58
64 65 66 66 67 67 67 67 67 67 67 67 66 66 66 66 66 65 65 65 64 64 64 64 63 62 61 58 57 55 54 54 54 53 51 48 46 45 45 43 42 42 42 42 42 42 43 44 44 44 44 45 46 49 54 60 63 64 64 63 63 63 63 64 64 65 65 64 64 63 63 62 62 61 60 59 59 58 58 57 57 57 56 56 56 57 58 58 58 58 58 58 58 57 57 57 57 57 58 58 58 58 57
63 63 63 63 64 64 64 64 64 65 65 66 65 63 63 63 63 64 64 63 63 63 63 62 59 57 55 54 53 53 52 52 51 51 50 47 45 44 43 42 42 42 42 42 42 43 44 45 45 45 45 45 46 48 53 60 63 64 63 63 63 63 63 63 64 65 65 65 65 64 64 63 62 61 60 60 59 58 57 57 57 56 56 56 56 56 58 58 58 58 58 58 57 57 57 57 57 57 58 58 58 57 57
60 59 60 60 61 62 61 62 62 62 63 64 63 61 60 60 60 61 62 60 59 60 60 58 57 55 54 52 51 51 50 50 50 49 49 47 45 44 43 42 42 42 41 42 42 43 44 45 45 45 45 45 46 48 53 60 63 63 63 63 63 63 63 63 64 64 65 66 66 66 65 64 63 62 61 60 59 58 57 57 56 56 56 56 56 56 57 58 58 58 58 57 57 57 57 57 57 57 58 58 58 57 57
58 58 58 58 58 59 59 59 59 60 61 61 60 59 59 58 58 58 59 58 58 58 58 57 57 56 55 54 52 51 50 50 49 49 47 46 45 45 43 42 41 41 41 41 42 43 44 45 45 45 46 45 46 48 52 60 63 63 63 63 63 63 63 63 63 64 65 65 66 66 66 65 63 62 61 60 59 58 58 57 56 56 56 56 56 56 56 57 57 58 58 57 57 57 56 56 56 57 57 58 58 57 56
58 57 56 57 57 58 58 59 59 59 59 59 60 59 59 58 59 59 59 59 58 58 58 58 58 58 57 56 54 53 51 50 49 49 47 46 45 45 44 43 42 42 41 42 42 43 44 45 45 46 46 45 46 48 52 60 63 62 61 62 63 63 63 63 63 63 64 64 65 66 66 65 63 62 61 60 59 59 58 57 56 56 56 56 56 56 56 56 57 57 58 57 57 56 56 56 56 57 57 58 57 57 56
59 58 58 57 57 57 58 58 58 59 59 59 60 61 60 60 60 60 60 60 59 59 58 58 58 58 58 58 57 56 55 53 51 49 49 47 46 45 45 44 43 43 42 42 43 43 44 44 45 45 45 45 46 48 51 60 62 62 61 61 62 62 63 63 63 63 63 63 64 64 65 65 64 63 62 61 60 59 58 58 57 56 56 56 56 55 55 56 56 57 57 57 57 56 56 56 56 56 57 57 57 57 56
60 60 58 58 58 58 58 58 58 59 59 60 61 61 60 60 61 61 61 61 60 60 59 59 58 58 58 58 58 57 57 56 54 53 51 49 49 47 46 45 45 44 44 43 43 44 44 44 44 44 44 45 45 47 49 57 61 62 61 61 61 61 62 63 63 63 63 63 63 63 64 65 65 64 63 62 60 60 59 58 58 57 56 56 56 55 55 55 56 56 57 57 57 56 56 56 56 56 57 57 57 56 56
61 60 59 59 59 59 58 57 58 58 58 60 60 60 60 59 60 61 61 61 60 60 60 59 59 59 59 58 58 57 57 57 56 56 54 53 51 50 49 47 46 45 44 44 44 44 44 44 44 44 44 45 45 47 48 55 59 62 61 61 60 61 61 62 62 63 63 63 62 62 63 63 64 65 64 63 62 60 59 58 58 57 57 57 56 56 56 56 56 56 57 57 56 56 55 55 55 56 56 57 57 56 56
60 60 59 60 60 60 59 58 57 57 57 58 59 59 59 59 59 60 60 61 60 60 60 60 60 60 59 59 58 58 57 57 56 56 56 55 54 53 51 49 47 46 45 44 44 45 45 45 45 45 45 45 46 47 48 52 58 61 61 61 60 60 60 61 61 62 62 62 62 62 62 62 63 64 64 64 63 62 60 59 58 58 58 57 57 57 56 56 56 56 57 57 57 56 55 55 55 55 56 56 56 56 55
59 59 59 59 59 60 59 58 58 57 57 58 58 58 59 59 59 60 60 61 61 61 60 60 60 60 60 60 59 59 59 58 57 56 56 56 56 55 54 52 50 48 46 45 45 45 45 46 46 46 46 46 46 47 47 49 54 59 61 61 60 60 60 60 61 61 62 62 61 61 61 62 62 63 63 64 64 63 62 61 59 58 58 58 58 57 57 57 57 57 57 57 57 56 56 55 55 55 55 56 56 56 56
59 59 59 59 59 59 59 58 58 58 58 58 58 58 58 59 60 60 60 61 61 61 60 60 60 60 60 60 60 59 59 59 58 58 57 56 56 56 56 55 53 51 49 48 47 46 47 47 47 47 47 47 47 48 48 48 52 57 61 61 60 60 59 60 60 61 62 61 61 61 60 61 61 62 63 63 64 64 63 62 61 59 58 58 58 58 58 58 57 57 57 57 57 57 57 56 55 55 55 56 56 56 56
59 59 59 59 59 59 59 59 58 58 58 58 59 59 60 60 60 61 61 61 61 61 61 61 61 60 60 60 60 60 61 60 59 58 58 57 57 56 57 56 55 54 52 50 49 48 48 48 48 48 48 48 48 48 49 48 49 52 59 60 60 60 59 59 60 61 61 61 61 60 60 60 61 61 62 63 63 64 64 63 62 60 59 59 58 58 58 58 58 58 58 58 58 58 57 57 56 55 55 56 56 56 56
60 60 60 60 60 60 60 60 59 59 60 60 60 60 61 61 61 61 61 61 61 61 61 61 61 61 61 61 61 61 61 60 59 59 58 58 57 57 57 57 56 55 54 53 51 50 49 48 48 48 48 48 49 49 49 48 48 49 54 59 60 60 60 60 60 60 61 61 61 60 60 60 60 61 62 63 63 63 64 63 62 61 60 60 59 59 59 58 58 58 58 58 58 58 58 57 57 56 55 56 56 57 57
60 60 61 61 61 61 60 60 60 60 61 61 61 61 61 61 61 61 61 61 61 61 61 61 61 61 61 61 61 61 61 60 60 59 58 58 58 58 57 57 57 56 55 54 53 52 50 49 49 49 49 49 49 49 49 49 48 49 49 55 58 59 60 60 60 60 61 61 61 61 60 60 60 61 61 62 63 63 64 63 63 62 61 61 60 60 59 59 59 59 59 59 58 58 58 58 57 57 56 56 56 57 57
61 61 61 61 61 61 61 61 61 61 62 62 62 62 61 61 61 61 61 61 61 61 61 61 61 61 61 61 61 60 60 60 60 59 59 58 58 58 58 57 57 57 56 55 54 54 53 52 51 50 50 49 49 49 49 49 49 49 49 53 55 58 60 61 61 61 61 61 61 61 61 60 60 60 61 62 63 63 63 63 63 63 62 61 61 60 60 60 59 59 59 59 59 59 58 58 58 57 57 56 56 57 57
61 61 61 61 61 61 62 61 61 61 62 62 62 62 61 61 61 61 62 61 61 61 61 61 61 61 61 61 60 60 60 60 60 60 59 58 58 58 58 58 58 57 56 56 55 55 54 54 53 52 52 52 51 50 50 50 49 49 49 50 52 55 58 59 60 61 61 61 61 61 61 61 60 60 61 62 62 63 63 63 63 63 62 62 61 61 61 60 60 60 59 59 59 59 59 59 58 58 58 57 57 57 57
62 62 61 61 61 61 62 62 62 62 61 62 62 62 61 61 61 61 61 61 61 61 61 61 61 61 61 61 60 60 60 60 60 60 59 59 58 58 58 58 58 57 57 56 56 55 55 54 54 54 54 54 53 53 52 52 51 50 49 49 50 51 54 54 56 58 61 61 62 61 61 61 61 61 61 61 62 62 63 63 63 63 62 62 61 61 61 61 61 60 60 60 59 59 59 59 59 59 58 58 57 57 57
62 62 62 62 61 61 61 61 62 62 61 62 62 62 62 61 61 61 61 61 60 60 61 61 61 61 61 61 60 60 60 60 59 59 59 59 58 58 58 58 58 58 57 57 56 56 55 55 55 56 55 55 54 54 54 54 53 52 51 50 49 49 50 51 51 53 58 60 61 62 62 61 61 61 60 61 61 62 62 63 63 63 63 62 62 61 61 61 61 60 60 60 59 59 60 60 60 60 59 59 58 58 57
62 62 62 62 62 61 61 61 62 62 62 62 62 62 62 61 61 61 61 61 61 60 60 60 61 61 61 61 61 60 60 60 59 59 59 59 58 58 58 58 58 58 57 57 57 56 56 56 56 56 56 56 55 55 54 54 54 54 53 52 50 49 49 49 49 50 54 56 59 61 62 62 61 61 60 60 61 61 62 63 63 63 63 63 62 62 61 61 60 60 60 60 59 59 59 60 60 60 61 60 59 58 58
63 63 62 62 62 62 62 62 62 62 62 62 62 62 62 61 61 61 61 61 60 60 60 60 60 60 60 60 60 60 60 60 59 59 58 58 58 58 58 58 58 58 57 57 57 56 56 56 57 57 57 56 56 55 55 54 54 54 54 53 52 50 49 49 48 49 49 52 55 58 61 62 61 61 60 60 60 61 62 62 63 63 63 63 63 62 61 61 60 60 59 59 59 59 58 59 59 60 61 61 61 60 59
63 63 63 62 62 62 62 62 62 62 62 62 62 62 61 61 61 61 61 60 60 60 60 60 60 60 60 60 60 59 59 59 59 59 58 58 58 58 58 58 58 58 57 57 57 56 56 56 56 56 56 57 56 56 55 54 54 54 54 53 52 51 49 49 49 48 47 49 51 55 58 61 61 61 60 60 60 60 61 62 62 63 63 63 63 63 62 61 60 60 59 59 58 58 58 58 58 59 60 61 61 61 61
63 63 62 62 62 62 62 62 62 62 62 62 62 62 61 61 61 61 60 60 60 60 60 60 60 60 60 60 59 59 59 59 59 59 58 58 58 58 58 58 58 58 57 57 56 55 55 55 55 56 56 56 56 56 55 55 55 55 54 54 52 50 49 48 48 47 47 47 48 50 54 59 61 60 60 60 60 60 60 61 62 62 62 63 63 63 62 62 61 60 59 59 58 58 58 58 58 58 58 59 61 62 62
63 63 62 62 62 62 62 62 62 62 62 62 62 61 61 61 61 61 61 60 60 60 60 60 60 60 60 59 59 59 59 59 59 58 58 58 58 58 58 57 57 57 57 56 55 55 54 54 55 55 55 55 54 55 55 55 55 54 54 52 50 48 47 47 46 46 46 46 47 48 50 56 59 60 60 59 59 60 60 61 61 61 61 62 62 62 62 62 61 61 60 59 59 59 58 58 58 58 58 58 60 62 62
63 63 63 62 62 62 62 62 62 62 62 62 62 61 61 61 61 61 61 61 61 60 60 60 61 60 60 59 59 59 59 58 58 58 58 58 58 58 58 57 57 57 56 55 54 54 54 54 54 54 54 54 54 54 54 54 54 53 52 49 48 46 46 46 46 46 46 46 46 47 47 50 54 57 59 59 59 59 60 60 60 60 61 61 61 62 62 62 61 61 61 60 60 60 59 59 58 58 58 58 58 59 61
63 63 63 63 63 62 62 62 63 63 63 62 62 61 61 61 61 61 61 61 61 61 60 60 60 60 60 60 59 59 58 58 58 58 58 58 58 58 57 57 57 57 56 55 54 54 53 53 54 54 53 53 53 53 53 54 53 52 50 48 46 45 45 46 46 46 46 46 46 47 47 48 49 51 55 57 58 58 58 59 59 60 60 60 60 61 61 61 61 61 61 61 61 60 60 59 59 58 58 58 58 58 59
63 63 63 63 62 62 62 62 63 63 63 63 62 62 61 61 61 61 61 61 61 61 60 60 60 60 60 60 59 59 59 58 59 58 58 58 58 58 58 57 57 57 56 56 55 54 54 53 53 52 52 52 52 52 52 53 52 51 49 48 46 45 45 45 45 45 45 45 45 47 49 49 48 47 49 50 51 53 55 58 59 59 60 59 60 60 60 60 61 61 61 61 61 61 60 60 59 59 58 58 57 57 57
63 63 63 62 62 62 62 62 63 63 63 63 62 62 61 61 61 61 61 60 60 60 60 60 60 60 60 60 60 59 59 59 58 58 58 58 58 58 58 57 57 57 56 56 55 55 54 54 53 52 52 52 52 51 51 51 50 49 48 47 46 45 44 45 45 45 45 45 45 46 48 48 47 47 46 47 47 48 49 54 57 60 59 59 59 59 59 59 59 60 60 60 61 61 60 60 60 59 58 58 58 57 56
63 63 63 63 62 62 62 63 63 63 63 63 62 62 61 61 61 61 60 60 60 60 60 60 60 59 59 59 59 59 59 58 58 58 58 58 58 58 58 57 57 57 56 56 55 55 55 54 53 53 52 52 51 51 50 49 49 48 47 47 46 45 44 44 44 44 45 45 46 46 46 45 45 44 44 45 45 45 45 49 54 58 59 59 58 58 58 58 59 59 59 59 60 60 60 60 60 59 59 58 58 57 57
63 63 63 63 62 62 62 63 63 63 63 63 63 62 62 62 61 61 61 61 60 60 60 61 60 60 59 59 59 59 58 58 58 58 58 57 56 56 56 56 56 56 56 55 55 55 55 54 54 54 53 52 51 50 49 48 47 47 47 46 46 45 45 44 44 44 45 45 45 45 44 43 42 41 41 42 42 42 43 44 47 52 57 58 58 58 58 59 59 58 58 58 58 59 59 59 59 59 59 59 58 58 57
63 62 62 62 62 62 62 62 63 63 63 63 63 62 62 62 61 61 61 61 60 60 60 61 60 60 59 59 58 58 58 58 58 58 58 56 55 54 54 54 54 54 54 55 55 55 54 54 54 54 53 52 51 50 49 48 47 47 47 47 46 46 45 44 44 44 44 44 43 43 43 42 41 40 40 41 41 41 41 42 44 45 48 51 54 55 57 58 58 58 57 57 57 57 58 58 58 58 59 59 58 58 57
63 63 62 62 62 62 62 62 62 62 62 62 62 62 61 61 61 60 60 60 59 60 60 60 60 60 60 59 59 58 58 58 58 57 56 55 55 54 54 54 54 54 53 53 54 55 55 54 54 54 53 52 51 50 49 49 48 48 48 47 47 46 45 45 43 43 42 42 42 42 43 42 42 42 41 42 42 42 42 42 43 43 44 44 45 47 50 51 53 54 54 54 54 54 55 56 57 58 58 58 58 58 58
63 63 63 62 62 62 62 61 61 60 60 60 61 61 61 60 59 59 59 59 59 59 59 59 58 58 59 59 59 59 59 58 58 58 57 56 55 56 57 55 54 52 51 50 51 54 55 54 54 54 53 52 51 50 50 49 49 48 47 47 46 45 44 43 42 41 40 40 41 42 43 43 44 44 44 44 45 45 45 45 44 44 44 44 44 45 46 48 49 51 53 52 53 53 54 54 55 56 57 58 58 58 57
63 63 63 62 62 62 62 61 60 59 59 59 59 59 59 59 58 58 58 59 59 59 60 59 58 58 58 58 58 58 59 59 58 58 58 57 56 56 56 54 52 50 49 49 50 51 52 53 53 53 53 52 51 50 50 49 49 48 48 46 45 43 42 41 41 41 40 41 42 43 43 44 45 45 45 45 46 46 46 45 45 45 44 44 44 44 45 46 49 51 52 52 52 52 53 54 54 55 55 56 57 57 56
63 62 62 61 61 61 60 60 59 59 58 59 59 59 58 58 58 58 58 58 59 60 60 60 59 58 58 57 57 57 58 58 58 58 58 58 57 55 54 53 52 52 53 53 51 50 50 51 51 52 52 52 52 51 50 49 48 47 46 45 44 42 40 40 40 41 42 44 45 45 45 45 45 46 46 46 46 46 46 45 45 44 44 43 44 44 44 45 48 50 51 52 52 52 53 53 53 54 54 54 55 55 54
62 61 60 60 59 59 59 58 58 58 58 60 60 59 58 58 58 58 58 58 59 60 60 59 59 59 58 58 57 57 56 58 58 58 58 58 58 56 54 54 54 54 54 53 52 50 49 50 50 51 51 52 51 50 49 48 47 46 46 44 42 40 40 40 41 43 45 46 47 47 47 47 47 46 46 46 46 46 46 46 45 45 44 43 43 43 44 46 48 48 48 50 51 52 52 52 53 53 53 53 53 53 53
60 60 59 58 58 58 58 58 58 58 58 59 59 59 59 59 59 59 58 58 59 59 60 60 59 59 59 59 58 57 57 58 58 58 58 58 58 58 57 56 55 55 55 54 51 50 50 52 52 52 51 51 51 49 48 47 46 46 45 44 43 42 41 42 44 46 47 47 47 47 48 49 48 47 46 46 46 46 47 46 45 44 44 43 42 43 43 43 44 45 45 47 49 50 52 52 52 52 53 53 53 53 52
60 59 58 58 57 58 58 58 57 57 58 58 58 59 59 60 61 61 60 60 60 61 61 61 61 61 61 60 60 59 58 58 58 59 59 58 58 58 58 57 56 55 55 54 53 52 54 54 54 53 53 54 53 52 49 48 47 46 46 45 45 45 46 47 48 48 48 48 47 47 48 49 48 47 47 47 47 46 45 45 45 44 44 43 42 42 42 43 44 44 45 45 46 48 51 51 51 52 52 53 53 53 52
56 57 56 56 56 57 57 57 57 57 58 58 58 58 59 60 61 61 60 61 61 62 62 62 62 62 62 62 62 61 60 58 58 58 59 59 58 58 58 58 58 58 57 56 56 56 56 56 57 56 55 56 56 56 53 50 49 48 47 47 47 48 48 48 48 48 48 48 48 48 48 48 48 48 47 47 47 46 45 45 44 44 44 43 42 42 42 43 45 45 45 46 46 47 49 49 50 51 51 52 52 53 52
52 53 53 54 54 55 56 56 57 57 58 58 58 58 58 59 60 61 61 62 63 63 63 62 62 62 62 63 63 63 61 59 58 58 59 59 58 58 58 57 58 58 58 58 58 58 58 58 58 57 57 56 57 57 56 53 50 48 48 48 49 49 49 49 49 48 48 48 48 48 47 47 47 48 47 47 47 46 45 45 45 44 44 43 42 42 43 45 46 47 47 47 47 48 48 49 49 49 50 51 51 52 52
49 49 49 49 50 51 52 54 54 55 57 57 58 58 58 59 60 60 61 65 65 64 63 63 63 63 63 63 63 63 62 59 58 59 60 59 58 58 58 57 57 57 57 57 57 58 58 58 58 58 58 56 56 56 56 54 52 50 49 49 49 50 50 49 49 49 48 49 49 48 47 47 47 47 47 47 47 46 45 45 45 45 44 43 42 42 43 44 45 46 47 47 47 47 48 49 49 49 49 49 50 51 51
47 47 47 47 48 48 49 50 51 53 55 56 57 57 58 59 60 60 60 62 63 64 64 63 63 63 63 64 64 64 62 60 60 60 62 61 60 59 59 58 57 57 57 57 57 58 57 58 58 58 58 57 56 55 54 54 52 52 52 51 51 51 51 49 49 49 49 49 49 49 48 48 47 47 47 46 46 46 45 45 45 45 44 44 43 43 44 44 44 44 45 45 46 48 48 48 49 49 49 49 49 50 50